Home > Time Zones > World Clock > Weather > Russia > Perm > Past weeks

Flag for Russia Weather past 2 weeks in Perm, Russia

Now
50 °F

Passing clouds.


Feels Like: 46 °F
Forecast: 48 / 60 °F
Wind: 10 mph from Northwest

Location: Perm'/Bolshoe Savino

Current Time: Jul 25, 2014 at 9:53:38 AM

Latest Report: Jul 25, 2014 at 9:30 AM


Visibility: N/A

Pressure: 29.80 "Hg

Humidity: 67%

Dew point: 39 °F

Location of PermLocation

Historic Weather in Perm — Graph

°F

Perm temperature yesterday

Maximum temperature yesterday: 66 °F (at 4:00 PM)
Minimum temperature yesterday: 50 °F (at 5:30 AM)
Average temperature yesterday: 57 °F

Past Weeks' High & Low Weather Summary

 TemperatureHumidityPressure
High82 °F (Jul 16, 5:30 PM)100% (Jul 10, 8:30 AM)30.07 "Hg (Jul 10, 8:30 AM)
Low41 °F (Jul 12, 6:00 AM)33% (Jul 14, 3:30 PM)29.50 "Hg (Jul 23, 5:00 AM)
Average57 °F73%29.85 "Hg
* Reported Jul 10 8:00 AM — Jul 25 8:30 AM, Perm, Weather by CustomWeather, © 2014

Note: Actual official high and low records may vary slightly from our data, if they occured in-between our weather recording intervals... More about our weather records

Advertising

Perm weather history for previous 24 hours

 ConditionsComfort  
Time TempWeatherWind HumidityBarometerVisibility
8:30 AM
Jul 25
48 °FSunny.8 mph71%29.77 "Hg10 mi
8:00 AM46 °FPassing clouds.6 mph76%29.80 "HgN/A
7:30 AM45 °FPassing clouds.6 mph81%29.77 "HgN/A
7:00 AM45 °FSunny.6 mph81%29.80 "Hg10 mi
6:30 AM45 °FSunny.6 mph81%29.80 "Hg10 mi
6:00 AM45 °FPassing clouds.6 mph81%29.77 "HgN/A
5:30 AM46 °FPassing clouds.6 mph76%29.77 "HgN/A
5:00 AM46 °FClear.6 mph76%29.77 "Hg10 mi
4:30 AM46 °FClear.6 mph76%29.77 "Hg10 mi
4:00 AM46 °FClear.6 mph76%29.77 "Hg10 mi
3:00 AM46 °FPassing clouds.3 mph76%29.80 "HgN/A
2:30 AM46 °FClear.3 mph76%29.77 "Hg10 mi
2:00 AM48 °FClear.6 mph71%29.77 "Hg10 mi
1:30 AM48 °FClear.3 mph71%29.77 "Hg10 mi
1:00 AM50 °FClear.3 mph71%29.77 "Hg10 mi
12:30 AM48 °FPartly cloudy.1 mph76%29.77 "HgN/A
12:00 AM50 °FClear.6 mph71%29.77 "Hg10 mi
11:30 PM
Jul 24
52 °FClear.6 mph67%29.77 "Hg10 mi
11:00 PM52 °FClear.8 mph67%29.77 "Hg10 mi
10:30 PM54 °FSunny.8 mph63%29.77 "Hg10 mi
10:00 PM55 °FSunny.8 mph63%29.77 "Hg10 mi
9:30 PM57 °FSunny.10 mph59%29.77 "Hg10 mi
9:00 PM57 °FSunny.10 mph59%29.74 "Hg10 mi
8:30 PM59 °FSunny.10 mph55%29.74 "Hg10 mi
8:00 PM61 °FSunny.8 mph52%29.74 "Hg10 mi
7:30 PM63 °FSunny.8 mph49%29.74 "Hg10 mi
6:30 PM64 °FSunny.10 mph46%29.74 "Hg10 mi
6:00 PM66 °FSunny.10 mph43%29.74 "Hg10 mi
5:30 PM66 °FPassing clouds.10 mph40%29.74 "HgN/A
5:00 PM64 °FSunny.13 mph43%29.74 "Hg10 mi
4:30 PM64 °FPassing clouds.10 mph43%29.77 "HgN/A
4:00 PM66 °FSunny.15 mph40%29.77 "Hg10 mi
3:30 PM64 °FSunny.13 mph46%29.77 "Hg10 mi
3:00 PM64 °FSunny.13 mph49%29.77 "Hg10 mi
2:30 PM64 °FSunny.15 mph43%29.77 "Hg10 mi
2:00 PM63 °FPartly sunny.10 mph45%29.77 "HgN/A
1:30 PM61 °FPartly sunny.13 mph48%29.77 "HgN/A
1:00 PM59 °FPartly sunny.13 mph55%29.77 "HgN/A
12:30 PM61 °FPartly sunny.10 mph52%29.77 "HgN/A
11:30 AM59 °FPartly sunny.13 mph59%29.77 "HgN/A
11:00 AM57 °FPartly sunny.15 mph59%29.80 "HgN/A
10:30 AM59 °FBroken clouds.10 mph59%29.80 "HgN/A
10:00 AM55 °FPassing clouds.10 mph67%29.80 "HgN/A
9:30 AM54 °FSunny.13 mph72%29.80 "Hg10 mi
Weather by CustomWeather, © 2014

See weather overviewHow to use our weather pages